COSMOS 755

导读

COSMOS 755(宇宙755)是苏联于1975年8月14日发射的“宇宙”号系列卫星,该系列是世界上卫星数量最多的多用途卫星家族,以军用卫星为主,同时涵盖科学探测与技术试验任务。作为早期航天活动的产物,它延续了苏联在冷战时期航天探索的技术路线,承担特定空间任务,为后续航天技术发展积累了宝贵数据,现已完成使命成为空间碎片留在近地轨道。

基本信息
目录编号:
8072
目录名称:
COSMOS 755
国际标识:
1975-074A
轨道中心:
EARTH
卫星名称:
COSMOS 755
卫星全名:
--
卫星状态:
在轨 (已飞行18610 天)
发射日期:
1975-08-14 UTC
国别 :
俄罗斯(独联体) (CIS)
星等 :
--
轨道信息
数据来源 国际轨道数据
星历时间: 2026-07-27T11:28:00+0800
20小时前
查看轨道信息
半长轴: 7362.586km
偏心率: 0.0028685
轨道倾角: 82.902°
近地点辐角 36.104°
升交点赤经 55.022°
平近点角 84.721°
近地点: 963.329km
远地点: 1005.569km
周期: 104.786分钟
每日圈数: 13.74223
详细信息
使用方式:
暂无
2D轨道图
3D轨道图
轨道高度分析图
轨道倾角分析图
轨道综合分析图
查看轨道综合分析图